Flag for U.S.A. Weather past 2 weeks in Cleveland, Tennessee, U.S.A.

Now
35 °F

Clear.


Feels Like: 26 °F
Forecast: 31 / 47 °F
Wind: 15 mph from Northwest

Location: Lovell Field

Current Time: Mar 28, 2015 at 5:46:08 AM

Latest Report: Mar 28, 2015 at 4:53 AM


Visibility: 10 mi

Pressure: 30.10 "Hg

Humidity: 52%

Dew point: 19 °F

Location of ClevelandLocation

Historic Weather in Cleveland — Graph

°F

Cleveland temperature yesterday

Maximum temperature yesterday: 56 °F (at 2:53 PM)
Minimum temperature yesterday: 42 °F (at 10:53 PM)
Average temperature yesterday: 48 °F

Past Weeks' High & Low Weather Summary

 TemperatureHumidityPressure
High81 °F (Mar 17, 3:53 PM)97% (Mar 14, 7:53 AM)30.33 "Hg (Mar 14, 7:53 AM)
Low35 °F (Mar 28, 4:53 AM)16% (Mar 16, 6:53 PM)29.72 "Hg (Mar 26, 5:53 PM)
Average58 °F68%30.08 "Hg
* Reported Mar 13 4:53 AM — Mar 28 4:53 AM, Cleveland, Weather by CustomWeather, © 2015

Note: Actual official high and low records may vary slightly from our data, if they occured in-between our weather recording intervals... More about our weather records

Advertising

Cleveland weather history for previous 24 hours

 ConditionsComfort  
Time TempWeatherWind HumidityBarometerVisibility
4:53 AM
Sat, Mar 28
35 °FClear.15 mph52%30.10 "Hg10 mi
3:53 AM37 °FPassing clouds.10 mph57%30.08 "Hg10 mi
2:53 AM37 °FPassing clouds.10 mph62%30.09 "Hg10 mi
1:53 AM39 °FPassing clouds.13 mph62%30.08 "Hg10 mi
12:53 AM41 °FMostly cloudy.8 mph60%30.08 "Hg10 mi
11:53 PM
Fri, Mar 27
42 °FPassing clouds.14 mph60%30.06 "Hg10 mi
10:53 PM42 °FPartly cloudy.10 mph65%30.04 "Hg10 mi
9:53 PM44 °FOvercast.10 mph58%30.03 "Hg10 mi
8:53 PM44 °FBroken clouds.9 mph55%29.99 "Hg10 mi
7:53 PM47 °FBroken clouds.13 mph50%29.97 "Hg10 mi
6:53 PM48 °FPartly sunny.18 mph50%29.95 "Hg10 mi
5:53 PM50 °FPartly sunny.20 mph44%29.92 "Hg10 mi
4:53 PM53 °FPartly sunny.14 mph32%29.89 "Hg10 mi
3:53 PM55 °FPartly sunny.17 mph34%29.89 "Hg10 mi
2:53 PM56 °FBroken clouds.12 mph36%29.90 "Hg10 mi
1:53 PM53 °FBroken clouds.9 mph41%29.91 "Hg10 mi
12:53 PM51 °FBroken clouds.12 mph44%29.92 "Hg10 mi
11:53 AM50 °FScattered clouds.14 mph46%29.93 "Hg10 mi
10:53 AM47 °FScattered clouds.15 mph59%29.93 "Hg10 mi
9:53 AM46 °FBroken clouds.13 mph63%29.92 "Hg10 mi
8:53 AM45 °FBroken clouds.14 mph71%29.90 "Hg10 mi
7:53 AM45 °FPartly cloudy.10 mph71%29.88 "Hg10 mi
6:53 AM45 °FPassing clouds.12 mph74%29.85 "Hg10 mi
5:53 AM45 °FPassing clouds.15 mph74%29.82 "Hg10 mi
Weather by CustomWeather, © 2015

See weather overviewHow to use our weather pages